Weather in Martynovychi

Ukraine / Kyiv Region     51°15′30″N   29°37′28″E
temp.,
°C
wind,
m/s
gust,
m/s
humid.,
%
clouds,
%
prec.,
mm/h
press.,
hPa
HPBL,
m
26 october, tue
tue2600:00+2s38625 0.0 1031141
03:00+1s49625 0.0 1030158
06:000s4106627 0.0 1029184
09:00+2s4125857 0.0 1029312
12:00+9ssw7103982 0.0 1027591
15:00+12ssw683263 0.0 1025879
18:00+7s494451 0.0 1024132
21:00+5ssw41351100 0.0 1024237
27 october, wed
wed2700:00+4ssw51458100 0.0 1024273
03:00+4ssw51269100 0.0 1023258
06:00+2sw41079100 0.0 1022201
09:00+5sw41065100 0.0 1022229
12:00+9w4961100 0.0 1022408
15:00+13wnw685474 0.0 10221151
18:00+8w357670 0.0 102357
21:00+7wsw3687100 0.0 102391
28 october, thu
thu2800:00+7wsw41085100 0.0 1023233
03:00+7wsw51388100 0.0 1022287
06:00+7wsw513888 0.0 1021334
09:00+8w61485100 0.0 1021446
12:00+12wnw71371100 0.0 1022677
15:00+13wnw61273100 0.0 1022712
18:00+12wnw41081100 0.0 1023538
21:00+11wnw499073 0.0 1024387
29 october, fri
fri2900:00+11nw258621 0.0 1025179
03:00+8nnw239573 0.0 102634
06:00+7nne229719 0.0 102719
09:00+7ene239839 0.0 102983
12:00+11e227054 0.0 1029515
15:00+13ese225647 0.0 1029797
18:00+9ese336938 0.0 102938
21:00+7se37815 0.0 1030102
30 october, sat
sat3000:00+6se38895 0.0 1030136
03:00+5sse369249 0.0 1030113
06:00+5sse499391 0.0 1030144
09:00+6sse4118946 0.0 1030245
12:00+13s69635 0.0 1029605
15:00+16s79525 0.0 1027966
18:00+11sse410635 0.0 1027163
21:00+9s412680 0.0 1028239